Regional Weather Roundup
Issued by NWS

Home | Current Version | Previous Version | Graphics & Text | Print | Product List | Glossary On
Versions: 1 2 3 4 5 6 7 8 9 10 11 12 13 14 15 16 17 18 19 20 21 22 23 24 25 26 27 28 29 30 31 32 33 34 35 36 37 38 39 40 41 42 43 44 45 46 47 48 49 50
000
ASUS43 KLSX 290759
RWRMO

WEATHER SUMMARY FOR MISSOURI
NATIONAL WEATHER SERVICE SPRINGFIELD MO
300 AM CDT WED JUL 29 2015

NOTE: "FAIR" INDICATES FEW OR NO CLOUDS BELOW 12,000 FEET WITH NO
       SIGNIFICANT WEATHER AND/OR OBSTRUCTIONS TO VISIBILITY.
       CURRENT SKY AND/OR WEATHER CONDITIONS ARE NOT AVAILABLE FOR
       CHILLICOTHE AND FARMINGTON.

MOZ001>031-035>038-043-044-053-054-290900-
...NORTHERN AND WESTERN MISSOURI...

CITY           SKY/WX    TMP DP  RH WIND       PRES   REMARKS
KANSAS CTY INT TSTM      72  69  90 N14G26    30.05R FOG
KANSAS C DTWN  CLOUDY    79  70  74 N13G23    30.04R THUNDER
LEE`S SUMMIT   LGT RAIN  81  73  76 N25G31    30.04R
ST JOSEPH      LGT RAIN  72  71  97 CALM      30.04R
CHILLICOTHE      N/A     72  71  97 S5        30.04F
KIRKSVILLE     TSTM      74  66  76 NW18G24   30.01R

$$
MOZ066>068-077>081-088>096-101>105-290900-
...SOUTHWEST MISSOURI...

CITY           SKY/WX    TMP DP  RH WIND       PRES   REMARKS
SPRINGFIELD    CLEAR     77  72  84 S5        30.00F
JOPLIN         CLEAR     77  73  87 S6        30.00R

$$
MOZ032>034-039>042-045>050-055>058-069>072-290900-
...CENTRAL MISSOURI...

CITY           SKY/WX    TMP DP  RH WIND       PRES   REMARKS
COLUMBIA       CLEAR     78  76  93 S3        29.98S
JEFFERSON CITY CLEAR     79  76  90 CALM      29.96S
ROLLA          CLEAR     76  74  93 SW8       29.98S
SEDALIA        CLEAR     79  74  84 SW6       30.00R
OSAGE BEACH    CLEAR     75  73  94 CALM      29.99S

$$
MOZ051-052-059>065-290900-
...EAST CENTRAL MISSOURI...

CITY           SKY/WX    TMP DP  RH WIND       PRES   REMARKS
ST LOUIS INTL  PTCLDY    85  76  74 W7        29.95F HX  94
SPIRIT OF STL  CLEAR     79  78  97 CALM      29.95R
ST CHARLES     PTCLDY    81  78  91 CALM      29.94R

$$
MOZ072>076-082>087-097>100-106>115-290900-
...SOUTH CENTRAL AND SOUTHEAST MISSOURI...

CITY           SKY/WX    TMP DP  RH WIND       PRES   REMARKS
CAPE GIRARDEAU PTCLDY    78  75  90 CALM      29.95F
FARMINGTON     PTCLDY    75  73  94 CALM      30.01F
POPLAR BLUFF   CLEAR     80  78  94 CALM      29.95S FOG
WEST PLAINS    CLEAR     78  73  84 CALM      30.02F

$$


USA.gov is the U.S. government's official web portal to all federal, state and local government web resources and services.